Regional Weather Roundup
Issued by NWS Little Rock, AR

Home | Current Version | Previous Version | Graphics & Text | Print | Product List | Glossary On
Versions: 1 2 3 4 5 6 7 8 9 10 11 12 13 14 15 16 17 18 19 20 21 22 23 24 25 26 27
000
ASUS44 KLZK 232105
RWRLZK

WEATHER ROUNDUP FOR ARKANSAS
NATIONAL WEATHER SERVICE LITTLE ROCK AR
400 PM CDT THU OCT 23 2014

NOTE: "FAIR" INDICATES FEW OR NO CLOUDS BELOW 12,000 FEET WITH NO
SIGNIFICANT WEATHER AND/OR OBSTRUCTIONS TO VISIBILITY.

ARZ001-003-010-029-232200-
NORTHWEST ARKANSAS

CITY           SKY/WX    TMP DP  RH WIND       PRES   REMARKS
FAYETTEVILLE   CLOUDY    61  55  81 CALM      30.14F
FORT SMITH     CLOUDY    68  50  52 E5        30.12F
HARRISON       PTSUNNY   63  53  70 SE5       30.14S
BENTONVILLE    CLOUDY    57  54  88 S6        30.13F
ROGERS         CLOUDY    57  53  86 SE8       30.13F
SILOAM SPGS    CLOUDY    59  52  77 SE6       30.13F
HIGHFILL       CLOUDY    58  55  90 S8        30.12F
SPRINGDALE     CLOUDY    61  54  77 S6        30.15F
$$

ARZ004-005-016-232200-
NORTH CENTRAL ARKANSAS

CITY           SKY/WX    TMP DP  RH WIND       PRES   REMARKS
BATESVILLE     CLOUDY    59  46  63 CALM      30.15F
FLIPPIN        PTSUNNY   63  45  51 SE6       30.15S
MTN HOME       CLOUDY    61  48  62 SE3       30.14F
$$

ARZ040-041-232200-
WEST CENTRAL ARKANSAS

CITY           SKY/WX    TMP DP  RH WIND       PRES   REMARKS
MENA           MOSUNNY   70  52  52 CALM      30.13S
MOUNT IDA      MOSUNNY   69  49  48 CALM      30.11F
$$

ARZ009-017-025-026-028-232200-
NORTHEAST ARKANSAS

CITY           SKY/WX    TMP DP  RH WIND       PRES   REMARKS
CORNING        FAIR      59  46  63 SW7       30.17S
JONESBORO      CLOUDY    59  46  62 CALM      30.16R
NEWPORT        CLOUDY    59  46  61 N5        30.16F
WALNUT RIDGE   CLOUDY    57  45  62 N3        30.15F
BLYTHEVILLE    CLOUDY    63  46  54 N7        30.14F
NW BLYTHEVILLE CLOUDY    61  46  59 N5        30.14S
$$

ARZ022-023-033-042-044-232200-
CENTRAL ARKANSAS

CITY           SKY/WX    TMP DP  RH WIND       PRES   REMARKS
LITTLE ROCK    CLOUDY    67  45  45 VRB3      30.15F
N LITTLE ROCK  PTSUNNY   62  48  59 NW3       30.15F
JACKSONVILLE   CLOUDY    63  46  54 NE2       30.14F
SEARCY         CLOUDY    62  45  53 CALM      30.16F
HOT SPRINGS    MOSUNNY   67  46  47 W3        30.13F
RUSSELLVILLE   PTSUNNY   66  45  46 CALM      30.14S
$$

ARZ036-232200-
EAST ARKANSAS

CITY           SKY/WX    TMP DP  RH WIND       PRES   REMARKS
WEST MEMPHIS   CLOUDY    61  45  55 VRB7      30.14R
$$

ARZ050-053-066-070-073-232200-
SOUTHWEST ARKANSAS

CITY           SKY/WX    TMP DP  RH WIND       PRES   REMARKS
ARKADELPHIA    FAIR      69  49  48 CALM      30.14F
CAMDEN         SUNNY     68  46  45 NE6       30.14F
TEXARKANA      MOSUNNY   69  47  45 CALM      30.12F
EL DORADO      SUNNY     66  46  48 CALM      30.14S
DE QUEEN       MOSUNNY   69  52  54 VRB3      30.11F
$$

ARZ056-057-069-232200-
SOUTHEAST ARKANSAS

CITY           SKY/WX    TMP DP  RH WIND       PRES   REMARKS
PINE BLUFF     CLOUDY    63  45  51 NW5       30.15S
STUTTGART      CLOUDY    63  45  51 N6        30.15F
MONTICELLO     CLOUDY    62  48  60 VRB3      30.13F

$$





USA.gov is the U.S. government's official web portal to all federal, state and local government web resources and services.